This is the latest recevied weather packets stored in our database for station/object K5BV. If no packets are shown the sender has not sent any weather packets the latest 10 day(s).
| Time | Temp. | Humidity | Pressure | Rain* | Wind** | Luminosity | Snow |
|---|---|---|---|---|---|---|---|
| 1777872158 | 22.22° C | 76% | 1018.9 hPa | 0 mm | - | - | - |
| 1777871558 | 22.22° C | 75% | 1018.9 hPa | 0 mm | - | - | - |
| 1777870962 | 22.22° C | 76% | 1019.3 hPa | 0 mm | - | - | - |
| 1777870357 | 22.22° C | 75% | 1019.5 hPa | 0 mm | - | - | - |
| 1777869758 | 22.22° C | 74% | 1019.6 hPa | 0 mm | - | - | - |
| 1777869158 | 22.22° C | 74% | 1019.5 hPa | 0 mm | - | - | - |
| 1777868558 | 22.22° C | 74% | 1019.6 hPa | 0 mm | - | - | - |
| 1777867959 | 22.22° C | 74% | 1019.6 hPa | 0 mm | - | - | - |
| 1777867357 | 22.22° C | 71% | 1019.5 hPa | 0 mm | - | - | - |
| 1777866759 | 22.22° C | 70% | 1019.5 hPa | 0 mm | - | - | - |
| 1777866157 | 22.22° C | 72% | 1019.4 hPa | 0 mm | - | - | - |
| 1777865557 | 22.22° C | 71% | 1019.4 hPa | 0 mm | - | - | - |
| 1777864957 | 22.22° C | 71% | 1019.4 hPa | 0 mm | - | - | - |
| 1777864358 | 22.22° C | 71% | 1019.3 hPa | 0 mm | - | - | - |
| 1777863758 | 22.22° C | 70% | 1019.3 hPa | 0 mm | - | - | - |
| 1777863158 | 22.22° C | 71% | 1019.5 hPa | 0 mm | - | - | - |
| 1777862557 | 22.22° C | 70% | 1019.4 hPa | 0 mm | - | - | - |
| 1777861958 | 22.22° C | 70% | 1019.4 hPa | 0 mm | - | - | - |
| 1777861359 | 22.78° C | 70% | 1019.2 hPa | 0 mm | - | - | - |
| 1777860758 | 22.78° C | 69% | 1019 hPa | 0 mm | - | - | - |
| 1777860158 | 22.78° C | 70% | 1018.9 hPa | 0 mm | - | - | - |
| 1777859559 | 22.22° C | 68% | 1018.9 hPa | 0 mm | - | - | - |
| 1777858964 | 22.78° C | 70% | 1018.8 hPa | 0 mm | - | - | - |
| 1777857759 | 22.78° C | 69% | 1018.8 hPa | 0 mm | - | - | - |
| 1777857159 | 22.78° C | 68% | 1018.7 hPa | 0 mm | - | - | - |
* Rain latest hour (hover to see other rain measurements)
** Current wind speed in m/s (hover to see current wind gust speed)